UAE145 OMDB-EHAM

Flight info

Callsign UAE145
Flight time 6h 25m
Altitude 36000
Route RIDAP M557 TUMAK L602 GADSI M860 SEPTU DCT VUSEB M860 NINVA UM860 ODALI UL852 DEVMU/N0482F380 UL852 NEGEM DCT MAXOV DCT BADOR DCT PITOK DCT MAKAL DCT LALUK DCT NORKU
Aircraft B77W/H-SDE1E2E3FGHIJ2J3J4J5M1RWXY/LB1D1

Departure

Time 2026-05-05 07:29
Airport Dubai International Airport (OMDB)

Arrival

Time 2026-05-05 13:55
Airport Amsterdam Airport Schiphol (EHAM)
Time Latitude Longitude Altitude Speed Heading
2026-05-05 07:12 25.25312 55.35132 27 ft 0 kts 30°
2026-05-05 07:20 25.25298 55.35122 26 ft 4 kts 32°
2026-05-05 07:20 25.25275 55.35106 24 ft 3 kts 31°
2026-05-05 07:21 25.25256 55.35097 24 ft 4 kts 339°
2026-05-05 07:21 25.25243 55.35115 25 ft 4 kts 290°
2026-05-05 07:21 25.25234 55.35137 26 ft 1 kts 303°
2026-05-05 07:21 25.25232 55.35141 26 ft 0 kts 303°
2026-05-05 07:23 25.25235 55.35136 27 ft 6 kts 303°
2026-05-05 07:23 25.25277 55.35057 27 ft 13 kts 300°
2026-05-05 07:23 25.25324 55.34961 27 ft 17 kts 297°
2026-05-05 07:24 25.25419 55.34896 27 ft 22 kts
2026-05-05 07:24 25.25582 55.34979 27 ft 27 kts 32°
2026-05-05 07:24 25.25695 55.35136 27 ft 27 kts 62°
2026-05-05 07:24 25.25838 55.35265 27 ft 27 kts 31°
2026-05-05 07:25 25.25982 55.35390 27 ft 27 kts 60°
2026-05-05 07:25 25.25962 55.35583 27 ft 27 kts 122°
2026-05-05 07:25 25.25864 55.35757 27 ft 27 kts 122°
2026-05-05 07:25 25.25765 55.35932 27 ft 27 kts 122°
2026-05-05 07:26 25.25668 55.36108 27 ft 27 kts 121°
2026-05-05 07:26 25.25572 55.36285 27 ft 27 kts 121°
2026-05-05 07:26 25.25474 55.36460 27 ft 27 kts 121°
2026-05-05 07:26 25.25377 55.36635 27 ft 27 kts 121°
2026-05-05 07:27 25.25279 55.36810 27 ft 27 kts 122°
2026-05-05 07:27 25.25180 55.36984 27 ft 27 kts 121°
2026-05-05 07:27 25.25085 55.37158 27 ft 27 kts 119°
2026-05-05 07:27 25.24991 55.37335 27 ft 27 kts 121°
2026-05-05 07:28 25.24900 55.37497 27 ft 7 kts 121°
2026-05-05 07:28 25.24880 55.37546 27 ft 7 kts 101°
2026-05-05 07:28 25.24898 55.37593 27 ft 7 kts 37°
2026-05-05 07:28 25.24976 55.37572 27 ft 20 kts 333°
2026-05-05 07:29 25.25145 55.37413 27 ft 45 kts 302°
2026-05-05 07:29 25.25390 55.36972 27 ft 106 kts 301°
2026-05-05 07:29 25.25950 55.35968 39 ft 199 kts 302°
2026-05-05 07:29 25.26654 55.34586 1004 ft 202 kts 300°
2026-05-05 07:30 25.27418 55.33200 1992 ft 222 kts 303°
2026-05-05 07:30 25.29263 55.29963 2811 ft 269 kts 303°
2026-05-05 07:30 25.30317 55.28215 3597 ft 277 kts 306°
2026-05-05 07:31 25.31444 55.26458 4424 ft 282 kts 307°
2026-05-05 07:31 25.32581 55.24692 5394 ft 281 kts 307°
2026-05-05 07:31 25.33700 55.22949 6303 ft 283 kts 306°
2026-05-05 07:31 25.34847 55.21150 7084 ft 288 kts 306°
2026-05-05 07:32 25.35768 55.19171 7727 ft 295 kts 282°
2026-05-05 07:32 25.35846 55.16896 8423 ft 299 kts 267°
2026-05-05 07:32 25.35739 55.14576 9192 ft 305 kts 268°
2026-05-05 07:32 25.35640 55.12221 10024 ft 307 kts 268°
2026-05-05 07:33 25.35543 55.09831 10668 ft 318 kts 268°
2026-05-05 07:33 25.35443 55.07285 10882 ft 345 kts 268°
2026-05-05 07:33 25.35339 55.04541 11081 ft 370 kts 268°
2026-05-05 07:33 25.35230 55.01621 11473 ft 386 kts 268°
2026-05-05 07:34 25.35120 54.98635 12281 ft 389 kts 268°
2026-05-05 07:34 25.35104 54.98212 12408 ft 390 kts 268°
2026-05-05 07:35 25.35017 54.95814 13107 ft 391 kts 268°
2026-05-05 07:35 25.34906 54.92803 13935 ft 393 kts 268°
2026-05-05 07:36 25.35004 54.89783 14508 ft 395 kts 282°
2026-05-05 07:36 25.35809 54.86880 14957 ft 400 kts 290°
2026-05-05 07:36 25.36745 54.83955 15627 ft 404 kts 289°
2026-05-05 07:36 25.36827 54.83693 15696 ft 404 kts 289°
2026-05-05 07:37 25.37716 54.80749 16519 ft 404 kts 288°
2026-05-05 07:38 25.37933 54.80013 16722 ft 405 kts 287°
2026-05-05 07:38 25.38468 54.78169 17209 ft 406 kts 287°
2026-05-05 07:39 25.39326 54.75171 17930 ft 410 kts 287°
2026-05-05 07:39 25.40177 54.72182 18542 ft 414 kts 287°
2026-05-05 07:39 25.41052 54.69129 19147 ft 418 kts 287°
2026-05-05 07:39 25.41943 54.66047 19762 ft 422 kts 287°
2026-05-05 07:40 25.42842 54.62942 20382 ft 425 kts 287°
2026-05-05 07:40 25.43749 54.59814 20988 ft 429 kts 287°
2026-05-05 07:40 25.44490 54.57289 21461 ft 432 kts 288°
2026-05-05 07:40 25.45426 54.54114 22049 ft 436 kts 288°
2026-05-05 07:41 25.46372 54.50906 22632 ft 440 kts 288°
2026-05-05 07:41 25.47311 54.47715 23171 ft 444 kts 288°
2026-05-05 07:41 25.48270 54.44449 23645 ft 447 kts 287°
2026-05-05 07:41 25.49234 54.41160 24143 ft 449 kts 287°
2026-05-05 07:42 25.50200 54.37860 24690 ft 450 kts 287°
2026-05-05 07:42 25.51163 54.34565 25249 ft 450 kts 287°
2026-05-05 07:42 25.52127 54.31267 25757 ft 451 kts 287°
2026-05-05 07:42 25.53094 54.27952 26217 ft 453 kts 287°
2026-05-05 07:43 25.54067 54.24619 26670 ft 456 kts 287°
2026-05-05 07:43 25.55049 54.21273 27077 ft 458 kts 287°
2026-05-05 07:43 25.56045 54.17910 27511 ft 460 kts 287°
2026-05-05 07:43 25.57032 54.14584 27952 ft 462 kts 286°
2026-05-05 07:44 25.58033 54.11200 28374 ft 463 kts 286°
2026-05-05 07:44 25.59036 54.07801 28757 ft 465 kts 286°
2026-05-05 07:44 25.60033 54.04384 29112 ft 467 kts 285°
2026-05-05 07:44 25.61011 54.00953 29455 ft 468 kts 285°
2026-05-05 07:45 25.61986 53.97498 29800 ft 470 kts 285°
2026-05-05 07:45 25.62960 53.94041 30195 ft 468 kts 285°
2026-05-05 07:45 25.63927 53.90616 30770 ft 462 kts 285°
2026-05-05 07:45 25.64887 53.87219 31262 ft 458 kts 285°
2026-05-05 07:46 25.65838 53.83855 31678 ft 457 kts 285°
2026-05-05 07:46 25.66786 53.80499 32063 ft 456 kts 285°
2026-05-05 07:46 25.67719 53.77195 32441 ft 455 kts 285°
2026-05-05 07:46 25.68664 53.73845 32850 ft 453 kts 284°
2026-05-05 07:47 25.69601 53.70518 33267 ft 451 kts 284°
2026-05-05 07:47 25.70531 53.67208 33666 ft 449 kts 284°
2026-05-05 07:47 25.71461 53.63896 34018 ft 447 kts 284°
2026-05-05 07:47 25.72384 53.60606 34318 ft 447 kts 284°
2026-05-05 07:48 25.73306 53.57316 34606 ft 446 kts 284°
2026-05-05 07:48 25.74212 53.54079 34901 ft 445 kts 284°
2026-05-05 07:48 25.75129 53.50802 35197 ft 444 kts 284°
2026-05-05 07:48 25.76052 53.47524 35553 ft 442 kts 284°
2026-05-05 07:49 25.76970 53.44279 35828 ft 441 kts 284°
2026-05-05 07:49 25.77894 53.41010 35790 ft 444 kts 284°
2026-05-05 07:49 25.79734 53.34496 35794 ft 441 kts 284°
2026-05-05 07:50 25.81557 53.28017 35793 ft 438 kts 284°
2026-05-05 07:50 25.83359 53.21604 35809 ft 437 kts 284°
2026-05-05 07:51 25.85502 53.15265 35796 ft 440 kts 290°
2026-05-05 07:51 25.88057 53.09069 35798 ft 441 kts 290°
2026-05-05 07:52 25.90583 53.02895 35802 ft 442 kts 290°
2026-05-05 07:52 25.93115 52.96655 35813 ft 443 kts 290°
2026-05-05 07:53 25.95647 52.90395 35801 ft 445 kts 290°
2026-05-05 07:53 25.98187 52.84109 35801 ft 445 kts 290°
2026-05-05 07:54 26.00724 52.77822 35800 ft 446 kts 290°
2026-05-05 07:54 26.03322 52.71557 35816 ft 447 kts 292°
2026-05-05 07:55 26.06132 52.65437 35798 ft 446 kts 292°
2026-05-05 07:55 26.08944 52.59277 35799 ft 445 kts 292°
2026-05-05 07:56 26.11707 52.53127 35799 ft 444 kts 292°
2026-05-05 07:56 26.14482 52.46996 35796 ft 443 kts 292°
2026-05-05 07:57 26.17257 52.40877 35820 ft 443 kts 292°
2026-05-05 07:57 26.20030 52.34746 35804 ft 443 kts 292°
2026-05-05 07:58 26.22772 52.28646 35799 ft 442 kts 291°
2026-05-05 07:58 26.25442 52.22475 35795 ft 442 kts 291°
2026-05-05 07:59 26.28101 52.16296 35798 ft 443 kts 291°
2026-05-05 07:59 26.30773 52.10111 35798 ft 443 kts 291°
2026-05-05 08:00 26.33446 52.03900 35806 ft 443 kts 290°
2026-05-05 08:00 26.36095 51.97695 35799 ft 443 kts 290°
2026-05-05 08:01 26.38536 51.91408 35797 ft 439 kts 285°
2026-05-05 08:01 26.40620 51.85044 35796 ft 439 kts 286°
2026-05-05 08:02 26.42769 51.78654 35795 ft 440 kts 286°
2026-05-05 08:02 26.44930 51.72276 35811 ft 439 kts 286°
2026-05-05 08:03 26.47087 51.65890 35797 ft 439 kts 286°
2026-05-05 08:03 26.49240 51.59513 35796 ft 438 kts 285°
2026-05-05 08:04 26.51355 51.53128 35794 ft 438 kts 285°
2026-05-05 08:04 26.53449 51.46799 35794 ft 437 kts 285°
2026-05-05 08:05 26.55555 51.40435 35791 ft 437 kts 285°
2026-05-05 08:05 26.57659 51.34072 35801 ft 437 kts 285°
2026-05-05 08:06 26.59762 51.27700 35796 ft 436 kts 285°
2026-05-05 08:06 26.61866 51.21337 35793 ft 436 kts 285°
2026-05-05 08:07 26.63951 51.15026 35791 ft 435 kts 285°
2026-05-05 08:07 26.66045 51.08669 35792 ft 435 kts 285°
2026-05-05 08:08 26.67783 51.03387 35795 ft 435 kts 285°
2026-05-05 08:08 26.69856 50.97024 35801 ft 435 kts 284°
2026-05-05 08:09 26.71906 50.90620 35804 ft 440 kts 284°
2026-05-05 08:09 26.73982 50.84129 35793 ft 444 kts 284°
2026-05-05 08:10 26.76063 50.77631 35796 ft 447 kts 284°
2026-05-05 08:10 26.78168 50.71068 35794 ft 448 kts 286°
2026-05-05 08:11 26.80949 50.64799 35822 ft 454 kts 294°
2026-05-05 08:11 26.84522 50.58976 35795 ft 453 kts 302°
2026-05-05 08:12 26.88552 50.53550 35800 ft 454 kts 302°
2026-05-05 08:12 26.92605 50.48101 35800 ft 458 kts 305°
2026-05-05 08:13 26.96993 50.42875 35834 ft 460 kts 306°
2026-05-05 08:13 27.01405 50.37673 35813 ft 460 kts 306°
2026-05-05 08:14 27.05761 50.32477 35804 ft 460 kts 305°
2026-05-05 08:14 27.10113 50.27228 35806 ft 459 kts 305°
2026-05-05 08:15 27.14478 50.21972 35827 ft 459 kts 306°
2026-05-05 08:15 27.19345 50.17208 35812 ft 470 kts 315°
2026-05-05 08:16 27.24607 50.12928 35797 ft 469 kts 315°
2026-05-05 08:16 27.29873 50.08594 35811 ft 468 kts 315°
2026-05-05 08:17 27.35132 50.04225 35810 ft 468 kts 315°
2026-05-05 08:17 27.40287 49.99817 35811 ft 467 kts 314°
2026-05-05 08:18 27.45391 49.95299 35804 ft 467 kts 313°
2026-05-05 08:18 27.50487 49.90791 35828 ft 468 kts 313°
2026-05-05 08:19 27.55620 49.86269 35813 ft 468 kts 313°
2026-05-05 08:19 27.60754 49.81748 35812 ft 468 kts 313°
2026-05-05 08:20 27.65886 49.77222 35811 ft 468 kts 313°
2026-05-05 08:20 27.71022 49.72686 35814 ft 468 kts 313°
2026-05-05 08:21 27.76110 49.68187 35806 ft 467 kts 313°
2026-05-05 08:21 27.81220 49.63650 35808 ft 467 kts 313°
2026-05-05 08:22 27.86318 49.59090 35822 ft 466 kts 312°
2026-05-05 08:22 27.91400 49.54537 35811 ft 466 kts 312°
2026-05-05 08:23 27.96486 49.49978 35806 ft 465 kts 312°
2026-05-05 08:23 28.01532 49.45451 35827 ft 465 kts 312°
2026-05-05 08:24 28.06593 49.40878 35811 ft 465 kts 311°
2026-05-05 08:24 28.11627 49.36283 35806 ft 464 kts 311°
2026-05-05 08:25 28.16657 49.31689 35804 ft 464 kts 311°
2026-05-05 08:25 28.21665 49.27114 35817 ft 465 kts 311°
2026-05-05 08:26 28.26703 49.22508 35814 ft 465 kts 311°
2026-05-05 08:26 28.31741 49.17867 35815 ft 465 kts 311°
2026-05-05 08:27 28.36761 49.13226 35810 ft 466 kts 311°
2026-05-05 08:27 28.41896 49.08765 35805 ft 472 kts 316°
2026-05-05 08:28 28.47387 49.04601 35799 ft 474 kts 316°
2026-05-05 08:28 28.52876 49.00445 35819 ft 474 kts 316°
2026-05-05 08:29 28.58364 48.96249 35810 ft 475 kts 316°
2026-05-05 08:30 28.66555 48.89959 35798 ft 475 kts 316°
2026-05-05 08:30 28.72038 48.85742 35815 ft 475 kts 316°
2026-05-05 08:31 28.77533 48.81512 35805 ft 475 kts 316°
2026-05-05 08:31 28.83020 48.77288 35796 ft 475 kts 316°
2026-05-05 08:32 28.88507 48.73081 35819 ft 475 kts 316°
2026-05-05 08:32 28.93964 48.68892 35801 ft 475 kts 316°
2026-05-05 08:33 28.99449 48.64674 35791 ft 474 kts 315°
2026-05-05 08:33 29.04918 48.60462 35798 ft 474 kts 315°
2026-05-05 08:34 29.10394 48.56237 35794 ft 474 kts 315°
2026-05-05 08:34 29.15829 48.52039 35795 ft 474 kts 315°
2026-05-05 08:35 29.21297 48.47810 35820 ft 474 kts 315°
2026-05-05 08:35 29.26767 48.43573 35808 ft 475 kts 315°
2026-05-05 08:36 29.32242 48.39327 35792 ft 475 kts 315°
2026-05-05 08:36 29.37725 48.35070 35807 ft 475 kts 315°
2026-05-05 08:37 29.43203 48.30819 35795 ft 476 kts 316°
2026-05-05 08:37 29.48922 48.26925 35794 ft 482 kts 320°
2026-05-05 08:38 29.54770 48.23134 35815 ft 482 kts 320°
2026-05-05 08:38 29.60609 48.19324 35799 ft 483 kts 320°
2026-05-05 08:39 29.66450 48.15480 35793 ft 483 kts 320°
2026-05-05 08:39 29.72243 48.11654 35825 ft 483 kts 320°
2026-05-05 08:40 29.78083 48.07794 35794 ft 484 kts 320°
2026-05-05 08:40 29.83920 48.03932 35790 ft 484 kts 320°
2026-05-05 08:41 29.89757 48.00064 35809 ft 484 kts 320°
2026-05-05 08:41 29.95606 47.96183 35790 ft 484 kts 320°
2026-05-05 08:42 30.01175 47.92028 35773 ft 471 kts 311°
2026-05-05 08:42 30.05920 47.86974 35794 ft 456 kts 302°
2026-05-05 08:43 30.10053 47.81442 35772 ft 454 kts 301°
2026-05-05 08:43 30.14142 47.75918 35777 ft 455 kts 301°
2026-05-05 08:44 30.18272 47.70374 35776 ft 455 kts 301°
2026-05-05 08:44 30.22418 47.64825 35767 ft 455 kts 301°
2026-05-05 08:45 30.26561 47.59279 35803 ft 455 kts 301°
2026-05-05 08:45 30.30694 47.53736 35786 ft 455 kts 301°
2026-05-05 08:46 30.34801 47.48219 35803 ft 455 kts 301°
2026-05-05 08:46 30.38938 47.42653 35793 ft 455 kts 301°
2026-05-05 08:47 30.43071 47.37084 35794 ft 456 kts 301°
2026-05-05 08:47 30.47202 47.31512 35808 ft 456 kts 301°
2026-05-05 08:48 30.51339 47.25922 35797 ft 456 kts 301°
2026-05-05 08:48 30.55491 47.20346 35795 ft 459 kts 303°
2026-05-05 08:49 30.60232 47.15295 35797 ft 471 kts 311°
2026-05-05 08:49 30.65372 47.10559 35788 ft 472 kts 311°
2026-05-05 08:50 30.70528 47.05795 35790 ft 473 kts 311°
2026-05-05 08:50 30.75666 47.01005 35815 ft 473 kts 311°
2026-05-05 08:51 30.80774 46.96219 35801 ft 473 kts 311°
2026-05-05 08:51 30.85908 46.91400 35791 ft 474 kts 311°
2026-05-05 08:52 30.91038 46.86580 35809 ft 474 kts 311°
2026-05-05 08:52 30.96179 46.81743 35786 ft 474 kts 311°
2026-05-05 08:53 31.01275 46.76943 35781 ft 474 kts 311°
2026-05-05 08:53 31.06403 46.72105 35800 ft 473 kts 311°
2026-05-05 08:54 31.11522 46.67268 35789 ft 473 kts 311°
2026-05-05 08:54 31.16636 46.62429 35794 ft 473 kts 311°
2026-05-05 08:55 31.21746 46.57587 35802 ft 473 kts 311°
2026-05-05 08:55 31.26835 46.52758 35791 ft 473 kts 310°
2026-05-05 08:56 31.31081 46.48724 35813 ft 472 kts 310°
2026-05-05 08:56 31.37007 46.43084 35818 ft 472 kts 310°
2026-05-05 08:57 31.41239 46.39052 35818 ft 471 kts 310°
2026-05-05 08:57 31.46326 46.34199 35823 ft 470 kts 310°
2026-05-05 08:58 31.51397 46.29352 35835 ft 470 kts 310°
2026-05-05 08:58 31.56473 46.24495 35834 ft 469 kts 310°
2026-05-05 08:59 31.61530 46.19649 35837 ft 469 kts 310°
2026-05-05 08:59 31.66546 46.14833 35861 ft 469 kts 310°
2026-05-05 09:00 31.71592 46.09982 35856 ft 468 kts 310°
2026-05-05 09:00 31.76634 46.05116 35880 ft 467 kts 310°
2026-05-05 09:01 31.81602 46.00197 35854 ft 467 kts 309°
2026-05-05 09:01 31.86523 45.95285 35863 ft 467 kts 309°
2026-05-05 09:02 31.91476 45.90345 35875 ft 467 kts 309°
2026-05-05 09:02 31.96439 45.85399 35864 ft 467 kts 309°
2026-05-05 09:03 32.01402 45.80449 35852 ft 467 kts 309°
2026-05-05 09:03 32.06358 45.75499 35868 ft 467 kts 309°
2026-05-05 09:04 32.11317 45.70537 35859 ft 466 kts 309°
2026-05-05 09:04 32.16259 45.65585 35857 ft 466 kts 309°
2026-05-05 09:05 32.21168 45.60658 35869 ft 465 kts 309°
2026-05-05 09:05 32.26099 45.55702 35874 ft 465 kts 309°
2026-05-05 09:06 32.31024 45.50745 35862 ft 464 kts 309°
2026-05-05 09:06 32.35948 45.45781 35873 ft 464 kts 309°
2026-05-05 09:07 32.40834 45.40849 35868 ft 463 kts 309°
2026-05-05 09:07 32.45735 45.35893 35891 ft 463 kts 309°
2026-05-05 09:08 32.50645 45.30920 35880 ft 463 kts 309°
2026-05-05 09:08 32.55591 45.26000 35876 ft 467 kts 312°
2026-05-05 09:09 32.61029 45.21618 35882 ft 474 kts 315°
2026-05-05 09:09 32.66509 45.17345 35872 ft 474 kts 315°
2026-05-05 09:10 32.72019 45.13008 35873 ft 475 kts 315°
2026-05-05 09:10 32.77527 45.08636 35888 ft 476 kts 315°
2026-05-05 09:11 32.83039 45.04248 35880 ft 477 kts 315°
2026-05-05 09:11 32.88519 44.99880 35906 ft 477 kts 315°
2026-05-05 09:12 32.94049 44.95467 35898 ft 479 kts 315°
2026-05-05 09:12 32.99594 44.91037 35893 ft 479 kts 315°
2026-05-05 09:13 33.05131 44.86606 35891 ft 479 kts 315°
2026-05-05 09:13 33.10629 44.82198 35889 ft 478 kts 315°
2026-05-05 09:14 33.16154 44.77762 35901 ft 479 kts 315°
2026-05-05 09:14 33.22035 44.73802 35891 ft 495 kts 325°
2026-05-05 09:15 33.28662 44.71085 35902 ft 511 kts 335°
2026-05-05 09:15 33.35598 44.69082 35900 ft 513 kts 336°
2026-05-05 09:16 33.42552 44.67126 35886 ft 513 kts 336°
2026-05-05 09:16 33.49466 44.65125 35888 ft 513 kts 335°
2026-05-05 09:17 33.56401 44.63077 35891 ft 513 kts 335°
2026-05-05 09:17 33.63336 44.61016 35896 ft 514 kts 335°
2026-05-05 09:18 33.70298 44.58945 35892 ft 515 kts 335°
2026-05-05 09:18 33.77264 44.56874 35882 ft 516 kts 335°
2026-05-05 09:19 33.84191 44.54812 35901 ft 517 kts 335°
2026-05-05 09:19 33.91189 44.52725 35887 ft 518 kts 335°
2026-05-05 09:20 33.98181 44.50637 35883 ft 518 kts 335°
2026-05-05 09:20 34.05185 44.48542 35900 ft 518 kts 335°
2026-05-05 09:21 34.12196 44.46440 35880 ft 518 kts 335°
2026-05-05 09:21 34.19148 44.44353 35888 ft 518 kts 335°
2026-05-05 09:22 34.26145 44.42248 35910 ft 518 kts 335°
2026-05-05 09:22 34.33164 44.40131 35885 ft 520 kts 335°
2026-05-05 09:23 34.40190 44.38011 35883 ft 521 kts 335°
2026-05-05 09:23 34.47230 44.35883 35915 ft 521 kts 335°
2026-05-05 09:24 34.54258 44.33753 35887 ft 523 kts 335°
2026-05-05 09:24 34.61335 44.31606 35890 ft 523 kts 335°
2026-05-05 09:25 34.68368 44.29470 35910 ft 523 kts 335°
2026-05-05 09:25 34.75447 44.27314 35892 ft 524 kts 335°
2026-05-05 09:26 34.82522 44.25156 35888 ft 524 kts 335°
2026-05-05 09:26 34.89595 44.22995 35920 ft 524 kts 335°
2026-05-05 09:27 34.96683 44.20824 35884 ft 525 kts 335°
2026-05-05 09:27 35.03777 44.18649 35888 ft 526 kts 335°
2026-05-05 09:28 35.10831 44.16482 35917 ft 526 kts 336°
2026-05-05 09:28 35.17947 44.14291 35892 ft 527 kts 336°
2026-05-05 09:29 35.25063 44.12098 35884 ft 527 kts 336°
2026-05-05 09:29 35.32196 44.09895 35906 ft 527 kts 336°
2026-05-05 09:30 35.39286 44.07701 35884 ft 528 kts 336°
2026-05-05 09:30 35.46407 44.05493 35879 ft 529 kts 336°
2026-05-05 09:31 35.53544 44.03278 35878 ft 528 kts 336°
2026-05-05 09:31 35.60669 44.01061 35894 ft 528 kts 336°
2026-05-05 09:32 35.67768 43.98848 35882 ft 528 kts 336°
2026-05-05 09:32 35.74894 43.96622 35912 ft 528 kts 336°
2026-05-05 09:33 35.82023 43.94391 35883 ft 529 kts 336°
2026-05-05 09:33 35.89168 43.92152 35892 ft 529 kts 337°
2026-05-05 09:34 35.96303 43.89912 35890 ft 528 kts 337°
2026-05-05 09:34 36.03426 43.87671 35931 ft 528 kts 337°
2026-05-05 09:35 36.10510 43.85438 35903 ft 528 kts 337°
2026-05-05 09:35 36.21193 43.82062 35923 ft 527 kts 338°
2026-05-05 09:36 36.28230 43.79723 35910 ft 522 kts 333°
2026-05-05 09:36 36.34909 43.76412 35947 ft 514 kts 328°
2026-05-05 09:37 36.41496 43.72895 35911 ft 515 kts 328°
2026-05-05 09:37 36.48106 43.69416 35905 ft 516 kts 329°
2026-05-05 09:38 36.54754 43.65959 35923 ft 518 kts 329°
2026-05-05 09:38 36.61402 43.62500 35914 ft 518 kts 329°
2026-05-05 09:39 36.68020 43.59045 35916 ft 518 kts 329°
2026-05-05 09:39 36.74670 43.55565 35923 ft 519 kts 329°
2026-05-05 09:40 36.81278 43.51955 35928 ft 516 kts 327°
2026-05-05 09:40 36.87847 43.48246 35922 ft 517 kts 327°
2026-05-05 09:41 36.94364 43.44573 35946 ft 517 kts 327°
2026-05-05 09:41 37.00960 43.40877 35900 ft 519 kts 328°
2026-05-05 09:42 37.07564 43.37179 35955 ft 520 kts 327°
2026-05-05 09:42 37.14165 43.33460 35963 ft 521 kts 328°
2026-05-05 09:43 37.19657 43.30368 35972 ft 521 kts 328°
2026-05-05 09:43 37.26275 43.26635 35968 ft 521 kts 328°
2026-05-05 09:44 37.32642 43.22477 35973 ft 503 kts 314°
2026-05-05 09:44 37.35217 43.19584 35935 ft 489 kts 304°
2026-05-05 09:44 37.37304 43.16369 36029 ft 475 kts 296°
2026-05-05 09:45 37.40454 43.09228 36020 ft 468 kts 289°
2026-05-05 09:45 37.43476 43.01867 35982 ft 476 kts 289°
2026-05-05 09:46 37.46561 42.94508 35964 ft 474 kts 289°
2026-05-05 09:46 37.49665 42.87178 35971 ft 474 kts 290°
2026-05-05 09:47 37.52768 42.79836 35962 ft 475 kts 290°
2026-05-05 09:47 37.55869 42.72477 35975 ft 474 kts 290°
2026-05-05 09:48 37.58940 42.65173 35957 ft 474 kts 290°
2026-05-05 09:48 37.62042 42.57821 35963 ft 475 kts 290°
2026-05-05 09:49 37.65151 42.50453 35978 ft 476 kts 290°
2026-05-05 09:49 37.68260 42.43065 35964 ft 475 kts 290°
2026-05-05 09:50 37.71360 42.35669 35961 ft 476 kts 290°
2026-05-05 09:50 37.74464 42.28252 35960 ft 478 kts 290°
2026-05-05 09:51 37.77558 42.20841 35967 ft 479 kts 290°
2026-05-05 09:51 37.80672 42.13370 35973 ft 481 kts 290°
2026-05-05 09:52 37.83786 42.05873 35960 ft 481 kts 290°
2026-05-05 09:52 37.86899 41.98367 35962 ft 482 kts 290°
2026-05-05 09:53 37.90041 41.90878 35962 ft 484 kts 293°
2026-05-05 09:53 37.93984 41.83863 35960 ft 494 kts 304°
2026-05-05 09:54 37.98568 41.77347 35993 ft 495 kts 305°
2026-05-05 09:54 38.03148 41.70868 35981 ft 495 kts 305°
2026-05-05 09:55 38.07721 41.64317 35958 ft 496 kts 304°
2026-05-05 09:55 38.12283 41.57727 35970 ft 496 kts 305°
2026-05-05 09:56 38.16845 41.51118 35957 ft 496 kts 304°
2026-05-05 09:56 38.21364 41.44561 35950 ft 496 kts 304°
2026-05-05 09:57 38.25915 41.37945 35964 ft 497 kts 305°
2026-05-05 09:57 38.30474 41.31307 35954 ft 497 kts 305°
2026-05-05 09:58 38.35021 41.24674 35978 ft 497 kts 305°
2026-05-05 09:58 38.39560 41.18033 35952 ft 496 kts 306°
2026-05-05 09:59 38.44082 41.11409 35958 ft 494 kts 305°
2026-05-05 09:59 38.48537 41.04814 35967 ft 493 kts 305°
2026-05-05 10:00 38.52938 40.98080 35956 ft 492 kts 304°
2026-05-05 10:00 38.57324 40.91346 35956 ft 492 kts 305°
2026-05-05 10:01 38.61692 40.84659 35957 ft 492 kts 305°
2026-05-05 10:01 38.66101 40.77943 35950 ft 492 kts 306°
2026-05-05 10:02 38.70531 40.71259 35956 ft 493 kts 306°
2026-05-05 10:02 38.74967 40.64555 35960 ft 494 kts 306°
2026-05-05 10:03 38.79406 40.57818 35957 ft 495 kts 306°
2026-05-05 10:03 38.83847 40.51060 35955 ft 495 kts 306°
2026-05-05 10:04 38.88257 40.44333 35971 ft 496 kts 306°
2026-05-05 10:04 38.92698 40.37545 35961 ft 496 kts 306°
2026-05-05 10:05 38.97130 40.30758 35973 ft 495 kts 306°
2026-05-05 10:05 39.01551 40.23978 35942 ft 493 kts 306°
2026-05-05 10:06 39.05952 40.17206 35944 ft 492 kts 306°
2026-05-05 10:06 39.10317 40.10476 35977 ft 492 kts 306°
2026-05-05 10:07 39.14703 40.03701 35952 ft 492 kts 306°
2026-05-05 10:07 39.19083 39.96920 35954 ft 491 kts 306°
2026-05-05 10:08 39.23455 39.90147 35965 ft 492 kts 306°
2026-05-05 10:08 39.27835 39.83345 35965 ft 492 kts 306°
2026-05-05 10:09 39.32190 39.76568 35957 ft 492 kts 306°
2026-05-05 10:09 39.36555 39.69757 35983 ft 491 kts 306°
2026-05-05 10:10 39.40911 39.62949 35965 ft 491 kts 306°
2026-05-05 10:10 39.45261 39.56132 35953 ft 492 kts 306°
2026-05-05 10:11 39.49610 39.49304 35960 ft 492 kts 305°
2026-05-05 10:11 39.53939 39.42446 35944 ft 491 kts 305°
2026-05-05 10:12 39.58199 39.35566 35940 ft 491 kts 304°
2026-05-05 10:12 39.62458 39.28672 35942 ft 492 kts 305°
2026-05-05 10:13 39.66745 39.21734 35933 ft 493 kts 305°
2026-05-05 10:13 39.71039 39.14777 35927 ft 492 kts 305°
2026-05-05 10:14 39.75342 39.07836 35911 ft 494 kts 306°
2026-05-05 10:14 39.79672 39.00951 35915 ft 495 kts 306°
2026-05-05 10:15 39.84041 38.93994 35927 ft 496 kts 306°
2026-05-05 10:15 39.88405 38.87015 35896 ft 497 kts 306°
2026-05-05 10:16 39.92762 38.80021 35903 ft 496 kts 306°
2026-05-05 10:16 39.97112 38.73021 35913 ft 496 kts 306°
2026-05-05 10:17 40.01426 38.66065 35906 ft 496 kts 306°
2026-05-05 10:17 40.05766 38.59051 35911 ft 496 kts 306°
2026-05-05 10:18 40.10096 38.52039 35926 ft 496 kts 306°
2026-05-05 10:18 40.14434 38.44995 35925 ft 498 kts 306°
2026-05-05 10:19 40.18768 38.37943 35901 ft 501 kts 306°
2026-05-05 10:19 40.23136 38.30821 35935 ft 501 kts 306°
2026-05-05 10:20 40.27500 38.23689 35914 ft 500 kts 306°
2026-05-05 10:20 40.31675 38.16489 35907 ft 497 kts 300°
2026-05-05 10:21 40.34873 38.08495 35913 ft 492 kts 289°
2026-05-05 10:21 40.37339 38.00129 35938 ft 491 kts 288°
2026-05-05 10:22 40.39794 37.91763 35949 ft 491 kts 288°
2026-05-05 10:22 40.42286 37.83408 35947 ft 492 kts 289°
2026-05-05 10:23 40.44772 37.75094 35952 ft 492 kts 289°
2026-05-05 10:23 40.47265 37.66716 35955 ft 492 kts 289°
2026-05-05 10:24 40.49755 37.58325 35964 ft 493 kts 289°
2026-05-05 10:24 40.52242 37.49914 35963 ft 494 kts 289°
2026-05-05 10:25 40.54728 37.41487 35956 ft 494 kts 289°
2026-05-05 10:25 40.57195 37.33091 35959 ft 494 kts 289°
2026-05-05 10:26 40.59671 37.24637 35976 ft 494 kts 289°
2026-05-05 10:26 40.62138 37.16190 35970 ft 495 kts 289°
2026-05-05 10:27 40.64602 37.07727 35975 ft 495 kts 289°
2026-05-05 10:27 40.67061 36.99251 35973 ft 495 kts 289°
2026-05-05 10:28 40.69515 36.90763 35982 ft 495 kts 289°
2026-05-05 10:28 40.71944 36.82334 35981 ft 495 kts 289°
2026-05-05 10:29 40.74386 36.73836 35982 ft 495 kts 289°
2026-05-05 10:29 40.76821 36.65337 35996 ft 495 kts 290°
2026-05-05 10:30 40.79261 36.56827 35990 ft 495 kts 290°
2026-05-05 10:30 40.81289 36.49748 35993 ft 495 kts 290°
2026-05-05 10:31 40.84114 36.39849 35986 ft 495 kts 290°
2026-05-05 10:31 40.86144 36.32706 35983 ft 495 kts 290°
2026-05-05 10:32 40.88558 36.24187 35988 ft 495 kts 290°
2026-05-05 10:32 40.90954 36.15702 35982 ft 495 kts 290°
2026-05-05 10:33 40.93365 36.07143 35974 ft 496 kts 291°
2026-05-05 10:33 40.95736 35.98565 35982 ft 497 kts 290°
2026-05-05 10:34 40.98087 35.89945 35977 ft 498 kts 290°
2026-05-05 10:34 41.00443 35.81363 35968 ft 498 kts 291°
2026-05-05 10:35 41.02843 35.72730 35978 ft 498 kts 291°
2026-05-05 10:35 41.05219 35.64163 35976 ft 499 kts 290°
2026-05-05 10:36 41.07604 35.55514 35975 ft 499 kts 290°
2026-05-05 10:36 41.09977 35.46869 35967 ft 497 kts 291°
2026-05-05 10:37 41.12332 35.38260 35968 ft 496 kts 291°
2026-05-05 10:37 41.14662 35.29710 35971 ft 494 kts 291°
2026-05-05 10:38 41.16989 35.21147 35973 ft 493 kts 290°
2026-05-05 10:38 41.19307 35.12587 35975 ft 492 kts 290°
2026-05-05 10:39 41.21619 35.04018 35971 ft 492 kts 290°
2026-05-05 10:39 41.23915 34.95479 35969 ft 492 kts 290°
2026-05-05 10:40 41.26211 34.86912 35968 ft 492 kts 290°
2026-05-05 10:40 41.28504 34.78328 35974 ft 492 kts 290°
2026-05-05 10:41 41.30792 34.69740 35965 ft 493 kts 290°
2026-05-05 10:41 41.33064 34.61175 35965 ft 493 kts 291°
2026-05-05 10:42 41.36474 34.48265 35960 ft 492 kts 290°
2026-05-05 10:43 41.38743 34.39642 35965 ft 492 kts 290°
2026-05-05 10:43 41.40980 34.31098 35953 ft 491 kts 291°
2026-05-05 10:44 41.43196 34.22484 35964 ft 491 kts 290°
2026-05-05 10:44 41.45402 34.13886 35963 ft 490 kts 290°
2026-05-05 10:45 41.47613 34.05293 35970 ft 490 kts 291°
2026-05-05 10:45 41.49826 33.96697 35978 ft 489 kts 291°
2026-05-05 10:46 41.52028 33.88106 35972 ft 489 kts 291°
2026-05-05 10:46 41.54221 33.79512 35988 ft 489 kts 291°
2026-05-05 10:47 41.56397 33.70948 35982 ft 489 kts 291°
2026-05-05 10:47 41.58577 33.62348 36009 ft 489 kts 291°
2026-05-05 10:48 41.60735 33.53730 35988 ft 489 kts 290°
2026-05-05 10:48 41.62881 33.45098 36017 ft 488 kts 291°
2026-05-05 10:49 41.65047 33.36541 36015 ft 488 kts 291°
2026-05-05 10:49 41.67216 33.27929 36018 ft 488 kts 291°
2026-05-05 10:50 41.69371 33.19309 36012 ft 488 kts 291°
2026-05-05 10:50 41.71518 33.10684 36008 ft 488 kts 291°
2026-05-05 10:51 41.73655 33.02071 36017 ft 487 kts 291°
2026-05-05 10:51 41.75757 32.93452 36029 ft 487 kts 291°
2026-05-05 10:52 41.77834 32.84866 36032 ft 487 kts 291°
2026-05-05 10:52 41.79920 32.76237 36028 ft 486 kts 291°
2026-05-05 10:53 41.82026 32.67629 36041 ft 485 kts 291°
2026-05-05 10:53 41.84144 32.59028 36027 ft 485 kts 291°
2026-05-05 10:54 41.86233 32.50488 36014 ft 484 kts 291°
2026-05-05 10:54 41.88305 32.41884 36022 ft 483 kts 290°
2026-05-05 10:55 41.90311 32.33275 36033 ft 482 kts 291°
2026-05-05 10:55 41.92362 32.24711 36033 ft 481 kts 291°
2026-05-05 10:56 41.94393 32.16192 36032 ft 481 kts 291°
2026-05-05 10:56 41.96423 32.07615 36035 ft 482 kts 291°
2026-05-05 10:57 41.98453 31.99012 36032 ft 482 kts 291°
2026-05-05 10:57 42.00479 31.90400 36034 ft 482 kts 291°
2026-05-05 10:58 42.02493 31.81800 36034 ft 482 kts 290°
2026-05-05 10:58 42.04488 31.73245 36023 ft 482 kts 290°
2026-05-05 10:59 42.06487 31.64638 36022 ft 481 kts 290°
2026-05-05 10:59 42.08480 31.56027 36020 ft 481 kts 290°
2026-05-05 11:00 42.10467 31.47410 36028 ft 481 kts 290°
2026-05-05 11:00 42.12442 31.38816 36036 ft 480 kts 290°
2026-05-05 11:01 42.14408 31.30253 36042 ft 481 kts 290°
2026-05-05 11:01 42.16382 31.21633 36032 ft 482 kts 290°
2026-05-05 11:01 42.17372 31.17298 36164 ft 484 kts 290°
2026-05-05 11:02 42.18364 31.12944 36461 ft 483 kts 290°
2026-05-05 11:02 42.19348 31.08612 36815 ft 481 kts 290°
2026-05-05 11:02 42.20325 31.04303 37179 ft 479 kts 290°
2026-05-05 11:02 42.21285 31.00061 37529 ft 478 kts 289°
2026-05-05 11:03 42.22254 30.95772 37818 ft 477 kts 289°
2026-05-05 11:03 42.23219 30.91495 37948 ft 478 kts 289°
2026-05-05 11:03 42.24191 30.87176 38010 ft 480 kts 289°
2026-05-05 11:04 42.26117 30.78598 38038 ft 479 kts 289°
2026-05-05 11:04 42.28033 30.70021 38046 ft 475 kts 289°
2026-05-05 11:05 42.29934 30.61483 38034 ft 473 kts 289°
2026-05-05 11:05 42.31824 30.52960 38056 ft 473 kts 289°
2026-05-05 11:06 42.33708 30.44433 38060 ft 474 kts 289°
2026-05-05 11:06 42.35590 30.35882 38064 ft 475 kts 289°
2026-05-05 11:07 42.37462 30.27339 38061 ft 477 kts 289°
2026-05-05 11:07 42.39343 30.18719 38068 ft 478 kts 289°
2026-05-05 11:08 42.41225 30.10063 38069 ft 479 kts 289°
2026-05-05 11:08 42.43101 30.01396 38067 ft 480 kts 289°
2026-05-05 11:09 42.44987 29.92773 38065 ft 479 kts 291°
2026-05-05 11:09 42.47799 29.84666 38086 ft 474 kts 303°
2026-05-05 11:10 42.51627 29.77440 38079 ft 472 kts 310°
2026-05-05 11:10 42.55740 29.70489 38060 ft 472 kts 310°
2026-05-05 11:11 42.59826 29.63553 38078 ft 472 kts 310°
2026-05-05 11:11 42.63914 29.56527 38081 ft 473 kts 310°
2026-05-05 11:12 42.67981 29.49487 38080 ft 474 kts 310°
2026-05-05 11:12 42.72021 29.42473 38084 ft 474 kts 310°
2026-05-05 11:13 42.76091 29.35392 38079 ft 475 kts 310°
2026-05-05 11:13 42.80162 29.28296 38080 ft 476 kts 310°
2026-05-05 11:14 42.84242 29.21165 38076 ft 476 kts 309°
2026-05-05 11:14 42.88314 29.14033 38076 ft 476 kts 309°
2026-05-05 11:15 42.92356 29.06937 38075 ft 476 kts 309°
2026-05-05 11:15 42.96417 28.99788 38077 ft 476 kts 309°
2026-05-05 11:16 43.00477 28.92625 38091 ft 476 kts 309°
2026-05-05 11:16 43.04537 28.85445 38093 ft 477 kts 309°
2026-05-05 11:17 43.08590 28.78258 38081 ft 477 kts 309°
2026-05-05 11:17 43.11958 28.72274 38082 ft 478 kts 309°
2026-05-05 11:18 43.16673 28.63876 38085 ft 478 kts 309°
2026-05-05 11:18 43.20074 28.57803 38089 ft 479 kts 309°
2026-05-05 11:19 43.24111 28.50578 38087 ft 480 kts 309°
2026-05-05 11:19 43.28175 28.43288 38071 ft 480 kts 309°
2026-05-05 11:20 43.32200 28.36048 38077 ft 480 kts 309°
2026-05-05 11:20 43.36254 28.28737 38076 ft 480 kts 309°
2026-05-05 11:21 43.40306 28.21414 38066 ft 481 kts 309°
2026-05-05 11:21 43.44357 28.14073 38074 ft 480 kts 308°
2026-05-05 11:22 43.48365 28.06792 38065 ft 480 kts 308°
2026-05-05 11:22 43.52399 27.99445 38068 ft 480 kts 308°
2026-05-05 11:23 43.56429 27.92088 38060 ft 480 kts 308°
2026-05-05 11:23 43.60474 27.84778 38058 ft 478 kts 311°
2026-05-05 11:24 43.65102 27.78233 38061 ft 476 kts 318°
2026-05-05 11:24 43.69951 27.71994 38047 ft 476 kts 318°
2026-05-05 11:25 43.74788 27.65745 38051 ft 475 kts 318°
2026-05-05 11:25 43.79572 27.59497 38048 ft 475 kts 318°
2026-05-05 11:26 43.84381 27.53172 38048 ft 475 kts 318°
2026-05-05 11:26 43.89168 27.46856 38040 ft 475 kts 318°
2026-05-05 11:27 43.93927 27.40568 38048 ft 474 kts 318°
2026-05-05 11:27 43.98699 27.34247 38045 ft 473 kts 318°
2026-05-05 11:28 44.03452 27.27939 38043 ft 473 kts 317°
2026-05-05 11:28 44.08207 27.21611 38048 ft 472 kts 318°
2026-05-05 11:29 44.12925 27.15319 38042 ft 472 kts 318°
2026-05-05 11:29 44.17669 27.08979 38045 ft 472 kts 318°
2026-05-05 11:30 44.22403 27.02636 38039 ft 471 kts 317°
2026-05-05 11:30 44.27126 26.96292 38038 ft 471 kts 318°
2026-05-05 11:31 44.31844 26.89941 38050 ft 470 kts 317°
2026-05-05 11:31 44.36531 26.83617 38045 ft 471 kts 317°
2026-05-05 11:32 44.41239 26.77249 38038 ft 471 kts 317°
2026-05-05 11:32 44.45946 26.70867 38042 ft 471 kts 317°
2026-05-05 11:33 44.50652 26.64472 38038 ft 471 kts 317°
2026-05-05 11:33 44.55357 26.58062 38037 ft 471 kts 317°
2026-05-05 11:34 44.60027 26.51687 38028 ft 471 kts 317°
2026-05-05 11:34 44.64725 26.45257 38035 ft 471 kts 317°
2026-05-05 11:35 44.69419 26.38815 38036 ft 472 kts 317°
2026-05-05 11:35 44.74111 26.32363 38033 ft 472 kts 317°
2026-05-05 11:36 44.78799 26.25901 38028 ft 472 kts 317°
2026-05-05 11:36 44.83486 26.19425 38031 ft 471 kts 317°
2026-05-05 11:37 44.88168 26.12938 38050 ft 471 kts 317°
2026-05-05 11:37 44.92814 26.06490 38028 ft 471 kts 317°
2026-05-05 11:38 44.97484 25.99988 38023 ft 471 kts 317°
2026-05-05 11:38 45.02156 25.93469 38044 ft 471 kts 317°
2026-05-05 11:39 45.06817 25.86950 38023 ft 471 kts 317°
2026-05-05 11:39 45.11473 25.80422 38046 ft 471 kts 316°
2026-05-05 11:40 45.16127 25.73881 38044 ft 471 kts 316°
2026-05-05 11:40 45.20772 25.67337 38038 ft 471 kts 316°
2026-05-05 11:41 45.25387 25.60819 38041 ft 470 kts 316°
2026-05-05 11:41 45.30020 25.54263 38043 ft 470 kts 316°
2026-05-05 11:42 45.34651 25.47688 38044 ft 470 kts 316°
2026-05-05 11:42 45.39277 25.41106 38043 ft 470 kts 316°
2026-05-05 11:43 45.43876 25.34548 38044 ft 470 kts 316°
2026-05-05 11:43 45.48493 25.27948 38037 ft 470 kts 316°
2026-05-05 11:44 45.53102 25.21340 38045 ft 469 kts 316°
2026-05-05 11:44 45.57710 25.14720 38051 ft 470 kts 316°
2026-05-05 11:45 45.62286 25.08130 38044 ft 470 kts 316°
2026-05-05 11:45 45.66901 25.01467 38042 ft 471 kts 315°
2026-05-05 11:46 45.71514 24.94790 38049 ft 472 kts 315°
2026-05-05 11:46 45.76097 24.88139 38049 ft 472 kts 315°
2026-05-05 11:47 45.80710 24.81429 38039 ft 472 kts 315°
2026-05-05 11:47 45.85313 24.74716 38032 ft 471 kts 315°
2026-05-05 11:48 45.92188 24.64659 38040 ft 471 kts 315°
2026-05-05 11:48 45.96771 24.57934 38044 ft 470 kts 315°
2026-05-05 11:49 46.01353 24.51191 38040 ft 470 kts 315°
2026-05-05 11:49 46.05898 24.44488 38049 ft 470 kts 315°
2026-05-05 11:50 46.10459 24.37745 38042 ft 470 kts 315°
2026-05-05 11:50 46.15019 24.30984 38043 ft 470 kts 315°
2026-05-05 11:51 46.19579 24.24208 38053 ft 469 kts 315°
2026-05-05 11:51 46.24101 24.17471 38047 ft 469 kts 315°
2026-05-05 11:52 46.28645 24.10683 38055 ft 469 kts 315°
2026-05-05 11:52 46.33187 24.03883 38056 ft 469 kts 315°
2026-05-05 11:53 46.37725 23.97069 38047 ft 470 kts 315°
2026-05-05 11:53 46.42256 23.90249 38048 ft 469 kts 314°
2026-05-05 11:54 46.46761 23.83452 38049 ft 469 kts 314°
2026-05-05 11:54 46.51278 23.76618 38050 ft 469 kts 314°
2026-05-05 11:55 46.55792 23.69772 38046 ft 468 kts 314°
2026-05-05 11:55 46.60295 23.62923 38034 ft 468 kts 314°
2026-05-05 11:56 46.64769 23.56103 38033 ft 468 kts 314°
2026-05-05 11:56 46.69278 23.49211 38032 ft 468 kts 314°
2026-05-05 11:57 46.73772 23.42325 38049 ft 469 kts 314°
2026-05-05 11:57 46.78237 23.35464 38038 ft 469 kts 314°
2026-05-05 11:58 46.82719 23.28560 38044 ft 469 kts 314°
2026-05-05 11:58 46.87202 23.21638 38041 ft 468 kts 314°
2026-05-05 11:59 46.91679 23.14705 38041 ft 468 kts 314°
2026-05-05 11:59 46.96150 23.07764 38041 ft 468 kts 314°
2026-05-05 12:00 47.00619 23.00808 38034 ft 467 kts 314°
2026-05-05 12:00 47.05040 22.93910 38031 ft 466 kts 314°
2026-05-05 12:01 47.09484 22.86956 38028 ft 466 kts 314°
2026-05-05 12:01 47.13915 22.80006 38023 ft 465 kts 313°
2026-05-05 12:02 47.18307 22.73097 38025 ft 464 kts 313°
2026-05-05 12:02 47.22710 22.66155 38019 ft 464 kts 313°
2026-05-05 12:03 47.27110 22.59197 38019 ft 464 kts 313°
2026-05-05 12:03 47.30761 22.53411 38018 ft 463 kts 313°
2026-05-05 12:04 47.35142 22.46451 38019 ft 463 kts 313°
2026-05-05 12:04 47.39520 22.39478 38012 ft 463 kts 313°
2026-05-05 12:05 47.43895 22.32489 38012 ft 462 kts 313°
2026-05-05 12:05 47.48233 22.25542 38009 ft 462 kts 313°
2026-05-05 12:06 47.52598 22.18534 38006 ft 462 kts 313°
2026-05-05 12:06 47.56929 22.11488 38004 ft 463 kts 310°
2026-05-05 12:07 47.60661 22.03715 38004 ft 463 kts 303°
2026-05-05 12:07 47.64149 21.95752 37997 ft 463 kts 303°
2026-05-05 12:08 47.67675 21.87713 37997 ft 464 kts 303°
2026-05-05 12:08 47.71213 21.79686 38002 ft 464 kts 303°
2026-05-05 12:09 47.74746 21.71675 37990 ft 464 kts 303°
2026-05-05 12:09 47.78250 21.63707 37993 ft 463 kts 303°
2026-05-05 12:10 47.81771 21.55677 37984 ft 463 kts 303°
2026-05-05 12:10 47.85280 21.47647 37984 ft 463 kts 302°
2026-05-05 12:11 47.88793 21.39582 37988 ft 464 kts 303°
2026-05-05 12:11 47.92302 21.31506 37996 ft 464 kts 302°
2026-05-05 12:12 47.95811 21.23403 37982 ft 464 kts 302°
2026-05-05 12:12 47.99296 21.15333 37988 ft 464 kts 302°
2026-05-05 12:13 48.02786 21.07225 37975 ft 464 kts 302°
2026-05-05 12:13 48.06271 20.99106 37971 ft 463 kts 302°
2026-05-05 12:14 48.09725 20.91036 37979 ft 463 kts 302°
2026-05-05 12:14 48.13191 20.82911 37967 ft 462 kts 302°
2026-05-05 12:15 48.16642 20.74800 37975 ft 462 kts 302°
2026-05-05 12:15 48.20104 20.66638 37982 ft 462 kts 302°
2026-05-05 12:16 48.23547 20.58495 37973 ft 462 kts 302°
2026-05-05 12:16 48.26963 20.50390 37971 ft 462 kts 301°
2026-05-05 12:17 48.30401 20.42211 37977 ft 462 kts 301°
2026-05-05 12:17 48.33844 20.34039 37971 ft 463 kts 302°
2026-05-05 12:18 48.37363 20.25923 37982 ft 463 kts 302°
2026-05-05 12:18 48.40879 20.17845 37969 ft 464 kts 302°
2026-05-05 12:19 48.44408 20.09688 37972 ft 465 kts 302°
2026-05-05 12:19 48.47928 20.01503 37966 ft 464 kts 302°
2026-05-05 12:20 48.51398 19.93401 37972 ft 461 kts 302°
2026-05-05 12:20 48.54889 19.85233 37992 ft 463 kts 301°
2026-05-05 12:21 48.58376 19.77043 37965 ft 461 kts 301°
2026-05-05 12:21 48.61820 19.68930 37969 ft 460 kts 301°
2026-05-05 12:22 48.65285 19.60749 37959 ft 462 kts 300°
2026-05-05 12:22 48.68747 19.52539 37958 ft 462 kts 301°
2026-05-05 12:23 48.72196 19.44347 37960 ft 464 kts 301°
2026-05-05 12:23 48.75677 19.36047 37945 ft 467 kts 300°
2026-05-05 12:24 48.79109 19.27836 37946 ft 460 kts 300°
2026-05-05 12:24 48.82523 19.19662 37918 ft 459 kts 301°
2026-05-05 12:25 48.85897 19.11540 37941 ft 454 kts 300°
2026-05-05 12:25 48.89280 19.03372 37914 ft 459 kts 300°
2026-05-05 12:26 48.92698 18.95103 37928 ft 463 kts 300°
2026-05-05 12:26 48.96113 18.86799 37904 ft 462 kts 300°
2026-05-05 12:27 48.99535 18.78469 37910 ft 462 kts 299°
2026-05-05 12:27 49.02934 18.70162 37902 ft 464 kts 300°
2026-05-05 12:28 49.06330 18.61833 37886 ft 465 kts 301°
2026-05-05 12:28 49.09746 18.53445 37894 ft 464 kts 299°
2026-05-05 12:29 49.13131 18.45094 37883 ft 460 kts 299°
2026-05-05 12:29 49.16485 18.36796 37876 ft 458 kts 299°
2026-05-05 12:30 49.19823 18.28506 37889 ft 463 kts 300°
2026-05-05 12:30 49.23207 18.20080 37883 ft 464 kts 300°
2026-05-05 12:31 49.26582 18.11622 37872 ft 465 kts 299°
2026-05-05 12:31 49.29896 18.03176 37863 ft 465 kts 298°
2026-05-05 12:32 49.33221 17.94665 37853 ft 465 kts 298°
2026-05-05 12:32 49.36539 17.86156 37857 ft 465 kts 298°
2026-05-05 12:33 49.39855 17.77633 37839 ft 464 kts 298°
2026-05-05 12:33 49.43160 17.69113 37833 ft 465 kts 298°
2026-05-05 12:34 49.46449 17.60606 37851 ft 465 kts 298°
2026-05-05 12:34 49.49744 17.52057 37852 ft 464 kts 298°
2026-05-05 12:35 49.53034 17.43494 37851 ft 464 kts 298°
2026-05-05 12:35 49.56313 17.34927 37853 ft 464 kts 298°
2026-05-05 12:36 49.59596 17.26325 37845 ft 464 kts 298°
2026-05-05 12:36 49.62867 17.17726 37845 ft 464 kts 298°
2026-05-05 12:37 49.66122 17.09140 37842 ft 464 kts 298°
2026-05-05 12:37 49.69353 17.00590 37840 ft 463 kts 298°
2026-05-05 12:38 49.72600 16.91968 37860 ft 463 kts 297°
2026-05-05 12:38 49.75816 16.83401 37839 ft 463 kts 297°
2026-05-05 12:39 49.79044 16.74772 37831 ft 463 kts 297°
2026-05-05 12:39 49.82265 16.66136 37828 ft 463 kts 297°
2026-05-05 12:40 49.85477 16.57492 37828 ft 462 kts 297°
2026-05-05 12:40 49.88661 16.48899 37835 ft 462 kts 297°
2026-05-05 12:41 49.91860 16.40232 37823 ft 462 kts 297°
2026-05-05 12:41 49.95047 16.31573 37822 ft 462 kts 297°
2026-05-05 12:42 49.98234 16.22883 37815 ft 462 kts 297°
2026-05-05 12:42 50.01395 16.14235 37824 ft 463 kts 297°
2026-05-05 12:43 50.04570 16.05518 37808 ft 463 kts 297°
2026-05-05 12:43 50.07737 15.96795 37806 ft 463 kts 297°
2026-05-05 12:44 50.10902 15.88049 37803 ft 463 kts 297°
2026-05-05 12:44 50.14060 15.79291 37802 ft 463 kts 297°
2026-05-05 12:45 50.17212 15.70519 37812 ft 463 kts 296°
2026-05-05 12:45 50.20355 15.61744 37802 ft 463 kts 296°
2026-05-05 12:46 50.23488 15.52969 37810 ft 462 kts 296°
2026-05-05 12:46 50.26590 15.44248 37804 ft 461 kts 296°
2026-05-05 12:47 50.29703 15.35464 37814 ft 461 kts 296°
2026-05-05 12:47 50.32809 15.26673 37820 ft 461 kts 296°
2026-05-05 12:48 50.35907 15.17878 37815 ft 461 kts 296°
2026-05-05 12:48 50.38980 15.09117 37812 ft 461 kts 296°
2026-05-05 12:49 50.42058 15.00311 37809 ft 460 kts 296°
2026-05-05 12:49 50.45133 14.91487 37827 ft 460 kts 295°
2026-05-05 12:50 50.48196 14.82666 37805 ft 460 kts 295°
2026-05-05 12:50 50.51248 14.73844 37809 ft 460 kts 295°
2026-05-05 12:51 50.54281 14.65049 37825 ft 459 kts 295°
2026-05-05 12:51 50.57316 14.56216 37822 ft 459 kts 295°
2026-05-05 12:52 50.59837 14.48854 37813 ft 459 kts 295°
2026-05-05 12:52 50.62863 14.39993 37814 ft 459 kts 295°
2026-05-05 12:53 50.65878 14.31134 37825 ft 458 kts 295°
2026-05-05 12:53 50.68870 14.22305 37827 ft 458 kts 294°
2026-05-05 12:54 50.73370 14.08975 37841 ft 458 kts 294°
2026-05-05 12:55 50.76362 14.00071 37826 ft 459 kts 294°
2026-05-05 12:55 50.79347 13.91160 37833 ft 459 kts 294°
2026-05-05 12:56 50.81923 13.82007 37845 ft 455 kts 287°
2026-05-05 12:56 50.84141 13.72628 37844 ft 455 kts 287°
2026-05-05 12:57 50.86347 13.63239 37836 ft 455 kts 287°
2026-05-05 12:57 50.88552 13.53906 37845 ft 455 kts 287°
2026-05-05 12:58 50.90775 13.44506 37846 ft 455 kts 287°
2026-05-05 12:58 50.92993 13.35102 37839 ft 456 kts 287°
2026-05-05 12:59 50.95208 13.25668 37840 ft 456 kts 286°
2026-05-05 12:59 50.97415 13.16221 37843 ft 456 kts 286°
2026-05-05 13:00 51.00707 13.02058 37852 ft 455 kts 286°
2026-05-05 13:01 51.05053 12.83207 37867 ft 456 kts 286°
2026-05-05 13:01 51.07229 12.73700 37849 ft 457 kts 286°
2026-05-05 13:02 51.09395 12.64201 37855 ft 457 kts 286°
2026-05-05 13:02 51.11562 12.54657 37855 ft 458 kts 286°
2026-05-05 13:03 51.13705 12.45175 37853 ft 458 kts 285°
2026-05-05 13:03 51.15853 12.35623 37872 ft 458 kts 285°
2026-05-05 13:04 51.18001 12.26031 37859 ft 458 kts 285°
2026-05-05 13:04 51.20137 12.16449 37857 ft 458 kts 285°
2026-05-05 13:05 51.22261 12.06878 37864 ft 458 kts 285°
2026-05-05 13:05 51.24366 11.97346 37883 ft 457 kts 285°
2026-05-05 13:06 51.26473 11.87761 37871 ft 458 kts 285°
2026-05-05 13:06 51.28573 11.78162 37874 ft 458 kts 285°
2026-05-05 13:07 51.30669 11.68538 37865 ft 459 kts 285°
2026-05-05 13:07 51.32760 11.58894 37873 ft 459 kts 285°
2026-05-05 13:08 51.34846 11.49226 37869 ft 459 kts 284°
2026-05-05 13:08 51.36910 11.39617 37873 ft 459 kts 284°
2026-05-05 13:09 51.38979 11.29935 37856 ft 460 kts 284°
2026-05-05 13:09 51.41042 11.20234 37870 ft 460 kts 284°
2026-05-05 13:10 51.43101 11.10508 37867 ft 460 kts 284°
2026-05-05 13:10 51.45135 11.00853 37865 ft 460 kts 284°
2026-05-05 13:11 51.47182 10.91091 37865 ft 461 kts 284°
2026-05-05 13:11 51.49220 10.81324 37865 ft 461 kts 284°
2026-05-05 13:12 51.51248 10.71557 37865 ft 461 kts 284°
2026-05-05 13:12 51.53271 10.61768 37879 ft 462 kts 284°
2026-05-05 13:13 51.55285 10.51973 37860 ft 462 kts 284°
2026-05-05 13:13 51.57291 10.42170 37857 ft 462 kts 284°
2026-05-05 13:14 51.59276 10.32417 37877 ft 461 kts 284°
2026-05-05 13:14 51.61264 10.22602 37865 ft 461 kts 284°
2026-05-05 13:15 51.63242 10.12789 37846 ft 460 kts 284°
2026-05-05 13:15 51.65207 10.02996 37862 ft 459 kts 284°
2026-05-05 13:16 51.67164 9.93193 37836 ft 459 kts 284°
2026-05-05 13:16 51.69108 9.83395 37862 ft 459 kts 283°
2026-05-05 13:17 51.71038 9.73626 37842 ft 460 kts 283°
2026-05-05 13:17 51.72973 9.63775 37855 ft 460 kts 283°
2026-05-05 13:18 51.74899 9.53931 37856 ft 460 kts 283°
2026-05-05 13:18 51.76809 9.44108 37854 ft 460 kts 283°
2026-05-05 13:19 51.78726 9.34207 37847 ft 460 kts 283°
2026-05-05 13:19 51.80626 9.24342 37848 ft 460 kts 283°
2026-05-05 13:20 51.82520 9.14452 37862 ft 460 kts 283°
2026-05-05 13:20 51.84405 9.04555 37863 ft 460 kts 283°
2026-05-05 13:21 51.86282 8.94655 37869 ft 460 kts 283°
2026-05-05 13:21 51.88140 8.84803 37875 ft 460 kts 283°
2026-05-05 13:22 51.90003 8.74863 37873 ft 461 kts 283°
2026-05-05 13:22 51.91859 8.64918 37874 ft 461 kts 283°
2026-05-05 13:23 51.93711 8.54938 37879 ft 462 kts 283°
2026-05-05 13:23 51.95543 8.45009 37872 ft 462 kts 283°
2026-05-05 13:24 51.97378 8.35016 37883 ft 462 kts 283°
2026-05-05 13:24 51.99207 8.24997 37888 ft 463 kts 283°
2026-05-05 13:25 52.01028 8.14966 37898 ft 463 kts 283°
2026-05-05 13:25 52.02829 8.04992 37894 ft 463 kts 283°
2026-05-05 13:26 52.04633 7.94951 37905 ft 463 kts 283°
2026-05-05 13:26 52.06428 7.84902 37921 ft 463 kts 283°
2026-05-05 13:27 52.08213 7.74847 37912 ft 462 kts 283°
2026-05-05 13:27 52.09973 7.64891 37906 ft 455 kts 283°
2026-05-05 13:28 52.11705 7.55031 37907 ft 453 kts 282°
2026-05-05 13:28 52.13415 7.45235 37898 ft 451 kts 282°
2026-05-05 13:29 52.14265 7.40349 37702 ft 446 kts 282°
2026-05-05 13:29 52.15103 7.35526 37230 ft 441 kts 282°
2026-05-05 13:29 52.15936 7.30710 36416 ft 443 kts 282°
2026-05-05 13:29 52.16771 7.25863 35563 ft 446 kts 282°
2026-05-05 13:30 52.17606 7.20999 34760 ft 447 kts 281°
2026-05-05 13:30 52.18445 7.16113 34011 ft 447 kts 281°
2026-05-05 13:30 52.19280 7.11237 33087 ft 447 kts 281°
2026-05-05 13:30 52.20120 7.06313 31912 ft 453 kts 281°
2026-05-05 13:31 52.20968 7.01326 30650 ft 461 kts 282°
2026-05-05 13:31 52.22145 6.96406 29489 ft 473 kts 296°
2026-05-05 13:31 52.24120 6.92106 28620 ft 473 kts 308°
2026-05-05 13:31 52.26274 6.88103 28026 ft 465 kts 307°
2026-05-05 13:32 52.28328 6.84143 27459 ft 458 kts 306°
2026-05-05 13:32 52.30333 6.80150 26821 ft 453 kts 306°
2026-05-05 13:32 52.32309 6.76159 26125 ft 450 kts 306°
2026-05-05 13:32 52.34273 6.72188 25522 ft 446 kts 306°
2026-05-05 13:33 52.36215 6.68272 25007 ft 440 kts 306°
2026-05-05 13:33 52.38134 6.64401 24420 ft 436 kts 306°
2026-05-05 13:33 52.40044 6.60545 23811 ft 434 kts 306°
2026-05-05 13:33 52.41936 6.56717 23150 ft 431 kts 307°
2026-05-05 13:34 52.43818 6.52907 22466 ft 428 kts 307°
2026-05-05 13:34 52.45625 6.49159 21854 ft 418 kts 303°
2026-05-05 13:34 52.46897 6.44902 20992 ft 416 kts 284°
2026-05-05 13:34 52.47295 6.40246 20306 ft 408 kts 272°
2026-05-05 13:35 52.47469 6.35588 19688 ft 407 kts 273°
2026-05-05 13:35 52.47651 6.31393 19169 ft 404 kts 273°
2026-05-05 13:35 52.47866 6.26808 18675 ft 400 kts 274°
2026-05-05 13:35 52.48086 6.22262 18120 ft 398 kts 273°
2026-05-05 13:36 52.48305 6.17791 17939 ft 386 kts 273°
2026-05-05 13:36 52.48515 6.13466 17926 ft 387 kts 273°
2026-05-05 13:36 52.48730 6.08996 17787 ft 394 kts 274°
2026-05-05 13:36 52.48872 6.06025 17447 ft 395 kts 274°
2026-05-05 13:37 52.49087 6.01533 16890 ft 393 kts 274°
2026-05-05 13:37 52.49298 5.97062 16240 ft 391 kts 274°
2026-05-05 13:37 52.49573 5.91174 15631 ft 382 kts 274°
2026-05-05 13:37 52.49772 5.86896 15096 ft 378 kts 274°
2026-05-05 13:38 52.49905 5.84000 14753 ft 375 kts 274°
2026-05-05 13:38 52.50098 5.79789 14214 ft 374 kts 274°
2026-05-05 13:38 52.50288 5.75611 14135 ft 358 kts 274°
2026-05-05 13:38 52.50469 5.71616 14008 ft 345 kts 274°
2026-05-05 13:39 52.50642 5.67765 13935 ft 331 kts 274°
2026-05-05 13:39 52.50806 5.64086 13792 ft 311 kts 274°
2026-05-05 13:39 52.50958 5.60628 13219 ft 298 kts 274°
2026-05-05 13:39 52.51082 5.57282 12605 ft 292 kts 269°
2026-05-05 13:40 52.50762 5.54049 11921 ft 283 kts 254°
2026-05-05 13:40 52.50210 5.50980 11198 ft 278 kts 253°
2026-05-05 13:40 52.49670 5.48004 10533 ft 273 kts 253°
2026-05-05 13:40 52.49128 5.44993 9864 ft 278 kts 253°
2026-05-05 13:41 52.48588 5.41956 9545 ft 276 kts 253°
2026-05-05 13:41 52.48052 5.38919 9145 ft 277 kts 254°
2026-05-05 13:41 52.47518 5.35877 8738 ft 279 kts 254°
2026-05-05 13:41 52.46986 5.32837 8528 ft 275 kts 254°
2026-05-05 13:42 52.46461 5.29829 8332 ft 273 kts 254°
2026-05-05 13:42 52.45935 5.26811 8170 ft 276 kts 253°
2026-05-05 13:42 52.45404 5.23770 7995 ft 278 kts 254°
2026-05-05 13:42 52.44875 5.20737 7856 ft 277 kts 253°
2026-05-05 13:43 52.44351 5.17738 7695 ft 277 kts 253°
2026-05-05 13:43 52.43819 5.14698 7527 ft 277 kts 253°
2026-05-05 13:43 52.43287 5.11659 7360 ft 277 kts 253°
2026-05-05 13:43 52.42754 5.08623 7194 ft 277 kts 253°
2026-05-05 13:44 52.42220 5.05586 7026 ft 276 kts 253°
2026-05-05 13:44 52.41689 5.02566 6847 ft 275 kts 253°
2026-05-05 13:44 52.41159 4.99560 6677 ft 275 kts 253°
2026-05-05 13:44 52.40628 4.96558 6514 ft 274 kts 253°
2026-05-05 13:45 52.40104 4.93596 6337 ft 273 kts 253°
2026-05-05 13:45 52.39575 4.90606 6157 ft 273 kts 253°
2026-05-05 13:45 52.39047 4.87630 5986 ft 272 kts 254°
2026-05-05 13:45 52.38519 4.84661 5803 ft 272 kts 254°
2026-05-05 13:46 52.37990 4.81687 5642 ft 271 kts 254°
2026-05-05 13:46 52.37461 4.78716 5459 ft 272 kts 254°
2026-05-05 13:46 52.36931 4.75747 5294 ft 271 kts 254°
2026-05-05 13:46 52.36398 4.72769 5122 ft 272 kts 254°
2026-05-05 13:47 52.35870 4.69822 4968 ft 273 kts 254°
2026-05-05 13:47 52.35335 4.66842 4750 ft 274 kts 254°
2026-05-05 13:47 52.34779 4.63842 4579 ft 273 kts 251°
2026-05-05 13:47 52.33910 4.61085 4413 ft 274 kts 238°
2026-05-05 13:48 52.32847 4.58472 4226 ft 277 kts 236°
2026-05-05 13:48 52.31777 4.55857 4049 ft 277 kts 237°
2026-05-05 13:48 52.30724 4.53205 3879 ft 278 kts 238°
2026-05-05 13:48 52.29694 4.50571 3699 ft 278 kts 238°
2026-05-05 13:49 52.28639 4.47864 3516 ft 279 kts 238°
2026-05-05 13:49 52.27443 4.45537 3345 ft 267 kts 213°
2026-05-05 13:49 52.25774 4.44435 3189 ft 256 kts 184°
2026-05-05 13:49 52.24048 4.44588 3034 ft 244 kts 164°
2026-05-05 13:50 52.22525 4.45593 2858 ft 232 kts 140°
2026-05-05 13:50 52.21568 4.47543 2684 ft 215 kts 109°
2026-05-05 13:50 52.21087 4.49782 2566 ft 204 kts 103°
2026-05-05 13:50 52.20810 4.51985 2421 ft 196 kts 81°
2026-05-05 13:51 52.21308 4.53956 2255 ft 183 kts 56°
2026-05-05 13:51 52.21977 4.55695 2110 ft 178 kts 57°
2026-05-05 13:51 52.22611 4.57360 2040 ft 170 kts 56°
2026-05-05 13:51 52.23231 4.58975 1999 ft 163 kts 56°
2026-05-05 13:52 52.23818 4.60501 1915 ft 154 kts 56°
2026-05-05 13:52 52.24366 4.61925 1724 ft 141 kts 54°
2026-05-05 13:52 52.24852 4.63182 1519 ft 124 kts 56°
2026-05-05 13:52 52.25290 4.64359 1380 ft 120 kts 56°
2026-05-05 13:53 52.25743 4.65498 1215 ft 117 kts 52°
2026-05-05 13:53 52.26219 4.66641 1027 ft 127 kts 53°
2026-05-05 13:53 52.26696 4.67880 907 ft 132 kts 56°
2026-05-05 13:53 52.27173 4.69187 712 ft 134 kts 56°
2026-05-05 13:54 52.27676 4.70457 545 ft 132 kts 57°
2026-05-05 13:54 52.28140 4.71710 376 ft 129 kts 56°
2026-05-05 13:54 52.28617 4.72955 157 ft 129 kts 56°
2026-05-05 13:54 52.29088 4.74195 26 ft 126 kts 57°
2026-05-05 13:55 52.29517 4.75297 2 ft 99 kts 57°
2026-05-05 13:55 52.29817 4.76084 -2 ft 64 kts 58°
2026-05-05 13:55 52.30004 4.76503 2 ft 28 kts 38°